Location: Angwan Shehu
(11.2514°N, 7.4613°E)
Time: 22:56:40
(UTC+00:00)

Tiros 1 - Pass Details

Date: 26 April 2021
Orbit: 630 x 664 km, 48.4° (Epoch: 07 May)

Event Time Altitude Azimuth Distance (km) Brightness Sun altitude
Exits shadow 03:49:07 35° 199° (SSW) 1,055 7.9 -20.7°
Maximum altitude 03:51:01 65° 129° (SE) 714 7.4 -20.2°
Drops below altitude 10° 03:55:41 10° 47° (NE) 2,041 10.7 -19.1°
Sets 03:58:01 0° 45° (NE) 2,945 11.7 -18.6°
